This demonstration page uses our WeatherBlox Daily Observations layout. Learn more.

Left ArrowRight Arrow

Hourly Observations for April 26, 2015

Temp ( °F °C ) Dew Point ( °F °C ) Humidity (%) Winds ( mph kmh ) Pressure ( in mb ) Visibility ( mi km ) Precip ( " mm )
12:51 am 00:51 Cloudy 62 16.7 34 1.1 35 35 W 6 9 29.65 1004 10 16 0.00 0.00
1:51 am 01:51 Cloudy 58 14.4 39 3.9 50 50 NW 23 37 29.62 1003 10 16 0.00 0.00
2:51 am 02:51 Cloudy with Light Rain 49 9.4 46 7.8 90 90 NW 22 35 29.69 1006 7 11 0.02 0.51
3:51 am 03:51 Cloudy with Heavy Rain 48 8.9 46 7.8 93 93 NNW 12 19 29.69 1005 4 6 0.13 3.30
4:06 am 04:06 Cloudy with Light Rain 48 8.9 46 7.8 93 93 NNW 9 15 29.80 1009 10 16 0.01 0.25
4:51 am 04:51 Mostly Cloudy 48 8.9 44 6.7 86 86 N 7 11 29.69 1005 10 16 0.02 0.51
5:51 am 05:51 Mostly Cloudy 48 8.9 45 7.2 89 89 NW 6 9 29.70 1006 10 16 0.05 1.27
6:37 am 06:37 Cloudy with Light Rain 48 8.9 46 7.8 93 93 WNW 8 13 29.83 1010 7 11 0.01 0.25
6:51 am 06:51 Cloudy with Light Rain 48 8.9 46 7.8 93 93 NW 10 17 29.72 1007 8 13 0.03 0.76
7:51 am 07:51 Cloudy with Light Rain 49 9.4 45 7.2 86 86 NNW 12 19 29.74 1007 10 16 0.00 0.03
8:51 am 08:51 Mostly Cloudy 52 11.1 43 6.1 72 72 NNW 12 19 29.74 1007 10 16 0.00 0.03
9:51 am 09:51 Cloudy 53 11.7 44 6.7 72 72 WNW 10 17 29.75 1007 10 16 0.00 0.00
10:37 am 10:37 Cloudy with Light Rain 51 10.6 46 7.8 83 83 WNW 9 15 29.83 1010 10 16 0.00 0.03
10:51 am 10:51 Cloudy with Light Rain 51 10.6 46 7.8 83 83 VRB 7 11 29.78 1009 10 16 0.01 0.25
11:05 am 11:05 Cloudy with Light Rain 51 10.6 45 7.2 80 80 NW 10 17 29.83 1010 10 16 0.00 0.03
11:51 am 11:51 Cloudy 53 11.7 45 7.2 74 74 NW 17 28 29.76 1008 10 16 0.00 0.03
12:51 pm 12:51 Mostly Cloudy 55 12.8 45 7.2 69 69 WNW 16 26 29.75 1008 10 16 0.00 0.00
1:51 pm 13:51 Mostly Cloudy 59 15 45 7.2 60 60 NW 16 26 29.73 1007 10 16 0.00 0.00
2:51 pm 14:51 Cloudy 61 16.1 45 7.2 56 56 NW 18 30 29.73 1007 10 16 0.00 0.00
3:51 pm 15:51 Mostly Cloudy with Light Rain 63 17.2 42 5.6 47 47 WNW 23 37 29.73 1007 10 16 0.00 0.03
4:51 pm 16:51 Mostly Sunny 63 17.2 42 5.6 47 47 WNW 16 26 29.73 1007 10 16 0.00 0.03
5:51 pm 17:51 Mostly Cloudy with Light Rain 59 15 44 6.7 58 58 NW 17 28 29.75 1007 10 16 0.00 0.03
6:51 pm 18:51 Cloudy 54 12.2 47 8.3 77 77 NW 17 28 29.78 1009 10 16 0.01 0.25
7:51 pm 19:51 Mostly Cloudy 55 12.8 42 5.6 62 62 NNW 14 22 29.80 1009 10 16 0.00 0.03
8:07 pm 20:07 Clear 54 12.2 43 6.1 67 67 NW 15 24 29.85 1011 10 16 0.00 0.00
8:51 pm 20:51 Clear 50 10 45 7.2 83 83 W 6 9 29.83 1010 10 16 0.00 0.00
9:51 pm 21:51 Partly Cloudy 49 9.4 46 7.8 90 90 NW 8 13 29.83 1010 10 16 0.00 0.00
10:51 pm 22:51 Mostly Clear 50 10 44 6.7 80 80 Calm 29.84 1010 10 16 0.00 0.00
11:51 pm 23:51 Clear 49 9.4 43 6.1 80 80 Calm 29.84 1011 10 16 0.00 0.00

Powered by AerisWeather